Location: *
(49.0044°N, 9.5056°E)
Time: 01:13:12
(UTC+00:00)

Cosmos 2084 Rocket - Pass Details

Date: 22 September 2019
Orbit: 572 x 610 km, 62.8° (Epoch: 20 October)

Event Time Altitude Azimuth Distance (km) Brightness Sun altitude
Rises 19:24:42 0° 231° (SW) 2,857 7.3 -20.5°
Reaches altitude 10° 19:26:59 10° 235° (SW) 1,959 6.5 -20.8°
Maximum altitude 19:31:23 63° 317° (NW) 685 3.9 -21.5°
Enters shadow 19:35:37 11° 38° (NE) 1,890 5.9 -22.1°
